Time,TemperatureF,DewpointF,PressureIn,WindDirection,WindDirectionDegrees,WindSpeedMPH,WindSpeedGustMPH,Humidity,HourlyPrecipIn,Conditions,Clouds,dailyrainin,SolarRadiationWatts/m^2,SoftwareType,DateUTC
2013-05-10 00:22:00,61.0,44.0,-100.00,WNW,286,15.0,21.0,53,0.00,,,0.00,0.000000,,2013-05-10 07:22:00,
2013-05-10 00:31:00,61.0,44.0,-100.00,WNW,286,15.0,21.0,53,0.00,,,0.00,0.000000,,2013-05-10 07:31:00,
2013-05-10 00:42:00,61.0,44.0,-100.00,WNW,286,15.0,21.0,53,0.00,,,0.00,0.000000,,2013-05-10 07:42:00,
2013-05-10 00:50:00,61.0,45.0,-100.00,West,280,14.0,22.0,55,0.00,,,0.00,0.000000,,2013-05-10 07:50:00,
2013-05-10 01:21:00,61.0,45.0,-100.00,West,280,14.0,22.0,55,0.00,,,0.00,0.000000,,2013-05-10 08:21:00,
2013-05-10 01:32:00,61.0,45.0,-100.00,West,280,14.0,22.0,55,0.00,,,0.00,0.000000,,2013-05-10 08:32:00,
2013-05-10 01:42:00,61.0,45.0,-100.00,West,280,14.0,22.0,55,0.00,,,0.00,0.000000,,2013-05-10 08:42:00,
2013-05-10 01:50:00,57.0,48.0,-100.00,West,277,12.0,20.0,71,0.00,,,0.00,0.000000,,2013-05-10 08:50:00,
2013-05-10 02:21:00,57.0,48.0,-100.00,West,277,12.0,20.0,71,0.00,,,0.00,0.000000,,2013-05-10 09:21:00,
2013-05-10 02:32:00,57.0,48.0,-100.00,West,277,12.0,20.0,71,0.00,,,0.00,0.000000,,2013-05-10 09:32:00,
2013-05-10 02:42:00,57.0,48.0,-100.00,West,277,12.0,20.0,71,0.00,,,0.00,0.000000,,2013-05-10 09:42:00,
2013-05-10 02:50:00,58.0,48.0,-100.00,WNW,282,13.0,18.0,69,0.00,,,0.00,0.000000,,2013-05-10 09:50:00,
2013-05-10 03:23:00,58.0,48.0,-100.00,WNW,282,13.0,18.0,69,0.00,,,0.00,0.000000,,2013-05-10 10:23:00,
2013-05-10 03:32:00,58.0,48.0,-100.00,WNW,282,13.0,18.0,69,0.00,,,0.00,0.000000,,2013-05-10 10:32:00,
2013-05-10 03:41:00,58.0,48.0,-100.00,WNW,282,13.0,18.0,69,0.00,,,0.00,0.000000,,2013-05-10 10:41:00,
2013-05-10 03:50:00,58.0,49.0,-100.00,West,280,15.0,21.0,73,0.00,,,0.00,0.000000,,2013-05-10 10:50:00,
2013-05-10 04:12:00,58.0,49.0,-100.00,West,280,15.0,21.0,73,0.00,,,0.00,0.000000,,2013-05-10 11:12:00,
2013-05-10 04:21:00,58.0,49.0,-100.00,West,280,15.0,21.0,73,0.00,,,0.00,0.000000,,2013-05-10 11:21:00,
2013-05-10 04:32:00,58.0,49.0,-100.00,West,280,15.0,21.0,73,0.00,,,0.00,0.000000,,2013-05-10 11:32:00,
2013-05-10 04:42:00,58.0,49.0,-100.00,West,280,15.0,21.0,73,0.00,,,0.00,0.000000,,2013-05-10 11:42:00,
2013-05-10 06:50:00,61.0,45.0,-100.00,WNW,291,9.0,17.0,56,-99.99,,,0.00,87.000000,,2013-05-10 13:50:00,
2013-05-10 07:11:00,61.0,45.0,-100.00,WNW,291,9.0,17.0,56,-99.99,,,0.00,87.000000,,2013-05-10 14:11:00,
2013-05-10 07:21:00,61.0,45.0,-100.00,WNW,291,9.0,17.0,56,-99.99,,,0.00,87.000000,,2013-05-10 14:21:00,
2013-05-10 07:32:00,61.0,45.0,-100.00,WNW,291,9.0,17.0,56,-99.99,,,0.00,87.000000,,2013-05-10 14:32:00,
2013-05-10 07:41:00,61.0,45.0,-100.00,WNW,291,9.0,17.0,56,-99.99,,,0.00,87.000000,,2013-05-10 14:41:00,
2013-05-10 07:50:00,65.0,41.0,-100.00,WNW,299,4.0,11.0,42,0.00,,,0.00,335.000000,,2013-05-10 14:50:00,
2013-05-10 08:20:00,-999.0,-99.9,-100.00,WNW,299,4.0,11.0,42,0.00,,,0.00,335.000000,,2013-05-10 15:20:00,
2013-05-10 08:32:00,65.0,41.0,-100.00,WNW,299,4.0,11.0,42,0.00,,,0.00,335.000000,,2013-05-10 15:32:00,
2013-05-10 08:42:00,65.0,41.0,-100.00,WNW,299,4.0,11.0,42,0.00,,,0.00,335.000000,,2013-05-10 15:42:00,
2013-05-10 08:50:00,74.0,39.0,-100.00,SE,142,5.0,8.0,28,0.00,,,0.00,585.000000,,2013-05-10 15:50:00,
2013-05-10 09:23:00,74.0,39.0,-100.00,SE,142,5.0,8.0,28,0.00,,,0.00,585.000000,,2013-05-10 16:23:00,
2013-05-10 09:32:00,74.0,39.0,-100.00,SE,142,5.0,8.0,28,0.00,,,0.00,585.000000,,2013-05-10 16:32:00,
2013-05-10 09:42:00,74.0,39.0,-100.00,SE,142,5.0,8.0,28,0.00,,,0.00,585.000000,,2013-05-10 16:42:00,
2013-05-10 09:50:00,76.0,40.0,-100.00,SE,128,9.0,13.0,27,0.00,,,0.00,818.000000,,2013-05-10 16:50:00,
2013-05-10 10:21:00,76.0,40.0,-100.00,SE,128,9.0,13.0,27,0.00,,,0.00,818.000000,,2013-05-10 17:21:00,
2013-05-10 10:32:00,76.0,40.0,-100.00,SE,128,9.0,13.0,27,0.00,,,0.00,818.000000,,2013-05-10 17:32:00,
2013-05-10 10:42:00,76.0,40.0,-100.00,SE,128,9.0,13.0,27,0.00,,,0.00,818.000000,,2013-05-10 17:42:00,
2013-05-10 10:50:00,79.0,40.0,-100.00,SE,142,7.0,17.0,25,0.00,,,0.00,1009.000000,,2013-05-10 17:50:00,
2013-05-10 11:11:00,79.0,40.0,-100.00,SE,142,7.0,17.0,25,0.00,,,0.00,1009.000000,,2013-05-10 18:11:00,
2013-05-10 11:21:00,79.0,40.0,-100.00,SE,142,7.0,17.0,25,0.00,,,0.00,1009.000000,,2013-05-10 18:21:00,
2013-05-10 11:34:00,79.0,40.0,-100.00,SE,142,7.0,17.0,25,0.00,,,0.00,1009.000000,,2013-05-10 18:34:00,
2013-05-10 11:43:00,79.0,40.0,-100.00,SE,142,7.0,17.0,25,0.00,,,0.00,1009.000000,,2013-05-10 18:43:00,
2013-05-10 11:50:00,82.0,37.0,-100.00,SE,127,12.0,20.0,20,0.00,,,0.00,1135.000000,,2013-05-10 18:50:00,
2013-05-10 12:11:00,82.0,37.0,-100.00,SE,127,12.0,20.0,20,0.00,,,0.00,1135.000000,,2013-05-10 19:11:00,
2013-05-10 12:21:00,82.0,37.0,-100.00,SE,127,12.0,20.0,20,0.00,,,0.00,1135.000000,,2013-05-10 19:21:00,
2013-05-10 12:32:00,82.0,37.0,-100.00,SE,127,12.0,20.0,20,0.00,,,0.00,1135.000000,,2013-05-10 19:32:00,
2013-05-10 12:42:00,82.0,37.0,-100.00,SE,127,12.0,20.0,20,0.00,,,0.00,1135.000000,,2013-05-10 19:42:00,
2013-05-10 13:21:00,84.0,31.0,-100.00,East,97,11.0,23.0,15,0.00,,,0.00,1214.000000,,2013-05-10 20:21:00,
2013-05-10 13:31:00,84.0,31.0,-100.00,East,97,11.0,23.0,15,0.00,,,0.00,1214.000000,,2013-05-10 20:31:00,
2013-05-10 13:50:00,86.0,31.0,-100.00,East,95,9.0,22.0,14,0.00,,,0.00,1218.000000,,2013-05-10 20:50:00,
2013-05-10 14:24:00,86.0,31.0,-100.00,East,95,9.0,22.0,14,0.00,,,0.00,1218.000000,,2013-05-10 21:24:00,
2013-05-10 14:32:00,86.0,31.0,-100.00,East,95,9.0,22.0,14,0.00,,,0.00,1218.000000,,2013-05-10 21:32:00,
2013-05-10 14:42:00,86.0,31.0,-100.00,East,95,9.0,22.0,14,0.00,,,0.00,1218.000000,,2013-05-10 21:42:00,
2013-05-10 15:12:00,88.0,27.0,-100.00,East,88,9.0,24.0,11,0.00,,,0.00,1167.000000,,2013-05-10 22:12:00,
2013-05-10 15:22:00,88.0,27.0,-100.00,East,88,9.0,24.0,11,0.00,,,0.00,1167.000000,,2013-05-10 22:22:00,
2013-05-10 15:32:00,88.0,27.0,-100.00,East,88,9.0,24.0,11,0.00,,,0.00,1167.000000,,2013-05-10 22:32:00,
2013-05-10 16:12:00,88.0,27.0,-100.00,East,100,9.0,23.0,11,0.00,,,0.00,993.000000,,2013-05-10 23:12:00,
2013-05-10 16:41:00,88.0,27.0,-100.00,East,100,9.0,23.0,11,0.00,,,0.00,993.000000,,2013-05-10 23:41:00,
2013-05-10 16:50:00,89.0,25.0,-100.00,NE,49,6.0,21.0,10,0.00,,,0.00,767.000000,,2013-05-10 23:50:00,
2013-05-10 17:50:00,82.0,44.0,-100.00,WNW,286,16.0,24.0,26,0.00,,,0.00,346.000000,,2013-05-11 00:50:00,
2013-05-10 18:21:00,82.0,44.0,-100.00,WNW,286,16.0,24.0,26,0.00,,,0.00,346.000000,,2013-05-11 01:21:00,
2013-05-10 18:31:00,82.0,44.0,-100.00,WNW,286,16.0,24.0,26,0.00,,,0.00,346.000000,,2013-05-11 01:31:00,
2013-05-10 18:42:00,82.0,44.0,-100.00,WNW,286,16.0,24.0,26,0.00,,,0.00,346.000000,,2013-05-11 01:42:00,
2013-05-10 18:50:00,79.0,46.0,-100.00,WNW,285,17.0,29.0,31,0.00,,,-99.99,67.000000,,2013-05-11 01:50:00,
2013-05-10 19:11:00,79.0,46.0,-100.00,WNW,285,17.0,29.0,31,0.00,,,-99.99,67.000000,,2013-05-11 02:11:00,
2013-05-10 19:21:00,79.0,46.0,-100.00,WNW,285,17.0,29.0,31,0.00,,,-99.99,67.000000,,2013-05-11 02:21:00,
2013-05-10 19:32:00,79.0,46.0,-100.00,WNW,285,17.0,29.0,31,0.00,,,-99.99,67.000000,,2013-05-11 02:32:00,
2013-05-10 19:42:00,79.0,46.0,-100.00,WNW,285,17.0,29.0,31,0.00,,,-99.99,67.000000,,2013-05-11 02:42:00,
2013-05-10 19:50:00,74.0,46.0,-100.00,West,281,19.0,30.0,37,0.00,,,0.00,19.000000,,2013-05-11 02:50:00,
2013-05-10 20:21:00,74.0,46.0,-100.00,West,281,19.0,30.0,37,0.00,,,0.00,19.000000,,2013-05-11 03:21:00,
2013-05-10 20:32:00,74.0,46.0,-100.00,West,281,19.0,30.0,37,0.00,,,0.00,19.000000,,2013-05-11 03:32:00,
2013-05-10 20:42:00,74.0,46.0,-100.00,West,281,19.0,30.0,37,0.00,,,0.00,19.000000,,2013-05-11 03:42:00,
2013-05-10 20:50:00,70.0,46.0,-100.00,West,275,20.0,29.0,43,0.00,,,0.00,0.000000,,2013-05-11 03:50:00,
2013-05-10 21:12:00,70.0,46.0,-100.00,West,275,20.0,29.0,43,0.00,,,0.00,0.000000,,2013-05-11 04:12:00,
2013-05-10 21:23:00,70.0,46.0,-100.00,West,275,20.0,29.0,43,0.00,,,0.00,0.000000,,2013-05-11 04:23:00,
2013-05-10 21:33:00,70.0,46.0,-100.00,West,275,20.0,29.0,43,0.00,,,0.00,0.000000,,2013-05-11 04:33:00,
2013-05-10 21:43:00,70.0,46.0,-100.00,West,275,20.0,29.0,43,0.00,,,0.00,0.000000,,2013-05-11 04:43:00,
2013-05-10 21:50:00,70.0,52.0,-100.00,WNW,282,21.0,30.0,52,0.00,,,0.00,0.000000,,2013-05-11 04:50:00,
2013-05-10 22:21:00,70.0,52.0,-100.00,WNW,282,21.0,30.0,52,0.00,,,0.00,0.000000,,2013-05-11 05:21:00,
2013-05-10 22:32:00,70.0,52.0,-100.00,WNW,282,21.0,30.0,52,0.00,,,0.00,0.000000,,2013-05-11 05:32:00,
2013-05-10 22:42:00,70.0,52.0,-100.00,WNW,282,21.0,30.0,52,0.00,,,0.00,0.000000,,2013-05-11 05:42:00,
2013-05-10 22:50:00,70.0,50.0,-100.00,West,269,18.0,27.0,50,0.00,,,0.00,0.000000,,2013-05-11 05:50:00,
2013-05-10 23:12:00,70.0,50.0,-100.00,West,269,18.0,27.0,50,0.00,,,0.00,0.000000,,2013-05-11 06:12:00,
2013-05-10 23:21:00,70.0,50.0,-100.00,West,269,18.0,27.0,50,0.00,,,0.00,0.000000,,2013-05-11 06:21:00,
2013-05-10 23:32:00,70.0,50.0,-100.00,West,269,18.0,27.0,50,0.00,,,0.00,0.000000,,2013-05-11 06:32:00,
2013-05-10 23:42:00,70.0,50.0,-100.00,West,269,18.0,27.0,50,0.00,,,0.00,0.000000,,2013-05-11 06:42:00,
2013-05-10 23:50:00,70.0,49.0,-100.00,West,280,16.0,27.0,47,0.00,,,0.00,0.000000,,2013-05-11 06:50:00,